Tracking 19562 objects as of 24-Mar-2019
HD Live streaming from Space Station
objects crossing your sky now

OPS 9794 (NAVSTAR 8)

Track OPS 9794 (NAVSTAR 8) now!
OPS 9794 (NAVSTAR 8) is classified as:


NORAD ID: 14189
Int'l Code: 1983-072A
Perigee: 20,527.9 km
Apogee: 21,472.1 km
Inclination: 62.2 °
Period: 751.1 minutes
Semi major axis: 27371 km
RCS: 0.4806 m2 (medium)
Launch date: July 14, 1983
Source: United States (US)
Launch site: AIR FORCE WESTERN TEST RANGE (AFWTR)
aabbcc
Your satellite tracking list
Your tracking list is empty




NASA's NSSDC Master Catalog

Two Line Element Set (TLE):
1 14189U 83072A   19082.49328145 +.00000022 +00000-0 +00000-0 0  9993
2 14189 062.2176 145.4203 0172480 040.8084 242.9100 01.91719333176137
Source of the keplerian elements: AFSPC